2024/04/02 00:00:00, 0.0, 8.0
2024/04/02 00:10:00, 0.0, 8.2
2024/04/02 00:20:00, 0.0, 8.2
2024/04/02 00:30:00, 0.0, 8.3
2024/04/02 00:40:00, 0.0, 8.3
2024/04/02 00:50:00, 0.0, 8.3
2024/04/02 01:00:00, 0.0, 8.6
2024/04/02 01:10:00, 0.0, 8.6
2024/04/02 01:20:00, 0.0, 8.6
2024/04/02 01:30:00, 0.0, 8.6
2024/04/02 01:40:00, 0.0, 8.6
2024/04/02 01:50:00, 0.0, 8.6
2024/04/02 02:00:00, 0.0, 8.8
2024/04/02 02:10:00, 0.0, 8.5
2024/04/02 02:20:00, 0.0, 8.3
2024/04/02 02:30:00, 0.0, 8.4
2024/04/02 02:40:00, 0.0, 8.4
2024/04/02 02:50:00, 0.0, 8.3
2024/04/02 03:00:00, 0.0, 8.5
2024/04/02 03:10:00, 0.0, 9.0
2024/04/02 03:20:00, 0.0, 8.9
2024/04/02 03:30:00, 0.0, 8.6
2024/04/02 03:40:00, 0.0, 8.6
2024/04/02 03:50:00, 0.0, 8.4
2024/04/02 04:00:00, 0.0, 8.7
2024/04/02 04:10:00, 0.0, 8.7
2024/04/02 04:20:00, 0.0, 8.7
2024/04/02 04:30:00, 0.0, 8.4
2024/04/02 04:40:00, 0.0, 8.5
2024/04/02 04:50:00, 0.0, 8.2
2024/04/02 05:00:00, 0.0, 8.4
2024/04/02 05:10:00, 0.0, 8.4
2024/04/02 05:20:00, 0.0, 8.4
2024/04/02 05:30:00, 0.0, 8.6
2024/04/02 05:40:00, 0.0, 8.2
2024/04/02 05:50:00, 0.0, 8.5
2024/04/02 06:00:00, 0.0, 8.6
2024/04/02 06:10:00, 0.0, 8.4
2024/04/02 06:20:00, 0.0, 8.6
2024/04/02 06:30:00, 0.0, 8.9
2024/04/02 06:40:00, 0.0, 9.3
2024/04/02 06:50:00, 0.0,10.0
2024/04/02 07:00:00, 0.0,10.6
2024/04/02 07:10:00, 0.0,10.8
2024/04/02 07:20:00, 0.0,11.2
2024/04/02 07:30:00, 0.0,11.7
2024/04/02 07:40:00, 0.0,12.4
2024/04/02 07:50:00, 0.0,13.5
2024/04/02 08:00:00,---,14.3
2024/04/02 08:10:00, 0.0,15.2
2024/04/02 08:20:00,---,15.1
2024/04/02 08:30:00,---,15.2
2024/04/02 08:40:00,---,16.3
2024/04/02 08:50:00,---,16.5
2024/04/02 09:00:00, 0.0,17.2
2024/04/02 09:10:00, 0.0,17.4
2024/04/02 09:20:00, 0.0,17.9
2024/04/02 09:30:00, 0.0,18.3
2024/04/02 09:40:00,---,18.4
2024/04/02 09:50:00, 0.0,18.4
2024/04/02 10:00:00,---,18.7
2024/04/02 10:10:00,---,19.1
2024/04/02 10:20:00,---,19.4
2024/04/02 10:30:00,---,19.5
2024/04/02 10:40:00,---,19.8
2024/04/02 10:50:00,---,20.2
2024/04/02 11:00:00,---,20.6
2024/04/02 11:10:00, 0.0,20.5
2024/04/02 11:20:00, 0.0,21.5
2024/04/02 11:30:00, 0.0,21.7
2024/04/02 11:40:00, 0.0,21.7
2024/04/02 11:50:00, 0.0,21.3
2024/04/02 12:00:00, 0.0,21.7
2024/04/02 12:10:00, 0.0,22.2
2024/04/02 12:20:00, 0.0,21.7
2024/04/02 12:30:00, 0.0,21.9
2024/04/02 12:40:00, 0.0,21.9
2024/04/02 12:50:00, 0.0,21.9
2024/04/02 13:00:00,---,21.9
2024/04/02 13:10:00,43.0,21.3
2024/04/02 13:20:00,---,21.6
2024/04/02 13:30:00,---,21.4
2024/04/02 13:40:00,---,21.3
2024/04/02 13:50:00, 0.0,21.1
2024/04/02 14:00:00, 0.0,20.7
2024/04/02 14:10:00, 0.0,20.9
2024/04/02 14:20:00, 0.0,21.0
2024/04/02 14:30:00, 0.0,20.8
2024/04/02 14:40:00, 0.0,20.6
2024/04/02 14:50:00, 0.0,20.3
2024/04/02 15:00:00, 0.0,20.3
2024/04/02 15:10:00, 0.0,20.1
2024/04/02 15:20:00, 0.0,19.7
2024/04/02 15:30:00, 0.0,19.7
2024/04/02 15:40:00, 0.0,19.5
2024/04/02 15:50:00, 0.0,19.4
2024/04/02 16:00:00, 0.0,19.3
2024/04/02 16:10:00, 0.0,18.9
2024/04/02 16:20:00, 0.0,18.6
2024/04/02 16:30:00, 0.0,18.5
2024/04/02 16:40:00, 0.0,18.3
2024/04/02 16:50:00, 0.0,17.8
2024/04/02 17:00:00,---,17.9
2024/04/02 17:10:00, 0.0,17.7
2024/04/02 17:20:00, 0.0,17.1
2024/04/02 17:30:00,---,16.5
2024/04/02 17:40:00,---,16.9
2024/04/02 17:50:00,---,16.4
2024/04/02 18:00:00, 0.0,16.6
2024/04/02 18:10:00, 0.0,16.5
2024/04/02 18:20:00, 0.0,16.2
2024/04/02 18:30:00, 0.0,16.3
2024/04/02 18:40:00, 0.0,15.9
2024/04/02 18:50:00,---,15.4
2024/04/02 19:00:00, 0.0,15.3
2024/04/02 19:10:00, 0.0,15.2
2024/04/02 19:20:00, 0.0,15.0
2024/04/02 19:30:00, 0.0,14.6
2024/04/02 19:40:00, 0.0,14.7
2024/04/02 19:50:00, 0.0,14.5
2024/04/02 20:00:00, 0.0,14.8
2024/04/02 20:10:00, 0.0,14.6
2024/04/02 20:20:00, 0.0,14.8
2024/04/02 20:30:00,---,14.7
2024/04/02 20:40:00, 0.0,14.8
2024/04/02 20:50:00,---,14.5
2024/04/02 21:00:00,---,14.1
2024/04/02 21:10:00, 0.0,13.9
2024/04/02 21:20:00, 0.0,13.7
2024/04/02 21:30:00,---,13.7
2024/04/02 21:40:00,---,13.6
2024/04/02 21:50:00,---,13.9
2024/04/02 22:00:00, 0.0,14.1
2024/04/02 22:10:00,---,14.1
2024/04/02 22:20:00, 0.0,14.1
2024/04/02 22:30:00, 0.0,14.0
2024/04/02 22:40:00, 0.0,14.0
2024/04/02 22:50:00, 0.0,13.9
2024/04/02 23:00:00, 0.0,13.9
2024/04/02 23:10:00, 0.0,13.9
2024/04/02 23:20:00, 0.0,13.6
2024/04/02 23:30:00, 0.0,13.5
2024/04/02 23:40:00, 0.0,13.6
2024/04/02 23:50:00, 0.0,13.2
